QPF
0.00 0.01 0.02 0.02 0.01 0.01 0.01 0.02 0.03 0.04 0.04 0.04 0.04 0.04 0.03 0.03 0.04 0.05 0.04 0.05 0.08 0.11 0.11 0.09 0.12 0.13 0.11 0.09 0.09 0.09 0.09 0.09 0.10 0.09 0.08 0.09 0.10 0.11 0.11 0.11 0.10 0.09 0.11 0.17 0.21 0.16 0.11 0.08 0.06
0.01 0.02 0.02 0.01 0.01 0.01 0.01 0.02 0.03 0.05 0.05 0.04 0.04 0.04 0.03 0.03 0.04 0.06 0.06 0.07 0.08 0.10 0.08 0.07 0.09 0.10 0.09 0.09 0.10 0.10 0.09 0.11 0.11 0.09 0.08 0.08 0.10 0.12 0.12 0.10 0.09 0.08 0.09 0.11 0.14 0.14 0.11 0.07 0.06
0.01 0.02 0.02 0.01 0.01 0.00 0.01 0.01 0.02 0.02 0.02 0.02 0.03 0.03 0.04 0.06 0.06 0.07 0.08 0.08 0.07 0.07 0.06 0.08 0.07 0.07 0.05 0.06 0.08 0.09 0.11 0.12 0.10 0.08 0.08 0.09 0.12 0.14 0.12 0.09 0.08 0.07 0.06 0.07 0.09 0.10 0.09 0.07 0.06
0.02 0.02 0.02 0.01 0.00 0.00 0.00 0.00 0.00 0.00 0.01 0.01 0.01 0.03 0.05 0.07 0.08 0.07 0.06 0.05 0.05 0.05 0.06 0.07 0.07 0.05 0.04 0.05 0.06 0.08 0.11 0.12 0.09 0.09 0.09 0.10 0.13 0.13 0.10 0.08 0.06 0.05 0.05 0.05 0.06 0.07 0.07 0.07 0.06
0.01 0.02 0.01 0.01 0.01 0.01 0.01 0.00 0.00 0.01 0.01 0.01 0.01 0.01 0.04 0.07 0.06 0.04 0.02 0.03 0.05 0.08 0.09 0.10 0.10 0.07 0.05 0.06 0.06 0.08 0.13 0.12 0.11 0.10 0.10 0.12 0.13 0.13 0.10 0.07 0.03 0.03 0.03 0.04 0.05 0.06 0.06 0.05 0.05
0.01 0.01 0.01 0.01 0.01 0.01 0.01 0.01 0.01 0.01 0.01 0.01 0.01 0.01 0.05 0.06 0.04 0.02 0.02 0.02 0.06 0.10 0.12 0.10 0.09 0.07 0.07 0.06 0.07 0.07 0.08 0.10 0.11 0.12 0.11 0.13 0.15 0.13 0.10 0.06 0.04 0.03 0.04 0.05 0.05 0.05 0.06 0.05 0.06
0.01 0.02 0.01 0.01 0.01 0.01 0.01 0.01 0.01 0.00 0.00 0.01 0.01 0.02 0.04 0.05 0.04 0.03 0.02 0.02 0.04 0.06 0.07 0.08 0.08 0.07 0.07 0.07 0.06 0.05 0.06 0.08 0.12 0.12 0.12 0.15 0.14 0.12 0.09 0.06 0.05 0.04 0.06 0.06 0.06 0.06 0.06 0.06 0.07
0.00 0.01 0.00 0.00 0.01 0.01 0.00 0.01 0.00 0.00 0.00 0.00 0.00 0.01 0.03 0.03 0.03 0.02 0.02 0.01 0.02 0.03 0.05 0.05 0.05 0.05 0.08 0.08 0.08 0.07 0.06 0.07 0.11 0.13 0.15 0.14 0.09 0.07 0.07 0.07 0.06 0.06 0.06 0.05 0.04 0.05 0.05 0.06 0.06
0.00 0.00 0.00 0.00 0.00 0.00 0.00 0.00 0.00 0.00 0.00 0.00 0.00 0.01 0.01 0.01 0.01 0.02 0.02 0.01 0.03 0.03 0.04 0.03 0.04 0.08 0.10 0.08 0.07 0.06 0.07 0.09 0.11 0.12 0.14 0.10 0.06 0.05 0.05 0.07 0.07 0.06 0.06 0.06 0.06 0.07 0.06 0.04 0.05
0.00 0.00 0.00 0.00 0.00 0.00 0.00 0.00 0.00 0.00 0.00 0.00 0.00 0.00 0.01 0.01 0.01 0.02 0.02 0.02 0.03 0.03 0.04 0.03 0.06 0.10 0.08 0.05 0.03 0.03 0.04 0.06 0.06 0.07 0.07 0.05 0.03 0.03 0.03 0.07 0.09 0.09 0.09 0.08 0.09 0.07 0.05 0.03 0.02
0.00 0.00 0.00 0.00 0.00 0.00 0.00 0.00 0.00 0.00 0.00 0.00 0.00 0.00 0.00 0.01 0.02 0.02 0.02 0.02 0.02 0.02 0.03 0.03 0.05 0.07 0.06 0.03 0.02 0.02 0.03 0.03 0.03 0.04 0.03 0.03 0.02 0.01 0.02 0.04 0.06 0.06 0.05 0.04 0.03 0.03 0.02 0.01 0.01
0.00 0.00 0.00 0.00 0.00 0.00 0.00 0.00 0.00 0.00 0.00 0.00 0.00 0.00 0.00 0.01 0.01 0.02 0.02 0.02 0.02 0.02 0.04 0.03 0.03 0.04 0.04 0.03 0.02 0.02 0.02 0.02 0.02 0.02 0.02 0.02 0.02 0.02 0.02 0.04 0.04 0.04 0.03 0.02 0.01 0.03 0.03 0.02 0.02
0.00 0.00 0.00 0.00 0.00 0.00 0.00 0.00 0.00 0.00 0.00 0.00 0.00 0.00 0.00 0.01 0.01 0.01 0.01 0.01 0.02 0.02 0.03 0.03 0.03 0.03 0.03 0.03 0.03 0.02 0.02 0.02 0.03 0.03 0.02 0.02 0.02 0.02 0.02 0.03 0.04 0.03 0.02 0.01 0.01 0.03 0.03 0.03 0.04
0.00 0.00 0.01 0.01 0.00 0.00 0.01 0.01 0.00 0.00 0.00 0.00 0.00 0.01 0.01 0.01 0.00 0.01 0.01 0.01 0.02 0.02 0.02 0.02 0.02 0.02 0.03 0.04 0.03 0.03 0.03 0.03 0.03 0.03 0.03 0.03 0.03 0.02 0.02 0.03 0.03 0.03 0.03 0.02 0.02 0.03 0.04 0.05 0.05
0.00 0.00 0.01 0.01 0.00 0.00 0.01 0.01 0.02 0.01 0.01 0.01 0.01 0.01 0.01 0.01 0.01 0.01 0.01 0.01 0.02 0.02 0.01 0.02 0.02 0.02 0.03 0.03 0.03 0.03 0.02 0.03 0.03 0.02 0.02 0.03 0.03 0.02 0.02 0.04 0.03 0.03 0.04 0.05 0.04 0.04 0.04 0.05 0.04
0.01 0.01 0.00 0.00 0.01 0.01 0.01 0.01 0.01 0.01 0.00 0.01 0.01 0.01 0.01 0.01 0.01 0.01 0.01 0.01 0.01 0.01 0.01 0.02 0.01 0.01 0.02 0.03 0.03 0.03 0.02 0.02 0.02 0.03 0.03 0.03 0.03 0.03 0.03 0.03 0.04 0.04 0.05 0.06 0.05 0.04 0.04 0.04 0.04
0.01 0.00 0.00 0.00 0.00 0.00 0.00 0.01 0.00 0.00 0.00 0.00 0.00 0.01 0.01 0.00 0.00 0.01 0.01 0.01 0.01 0.01 0.01 0.03 0.03 0.02 0.03 0.03 0.03 0.03 0.03 0.03 0.03 0.03 0.03 0.03 0.03 0.03 0.03 0.03 0.03 0.03 0.04 0.06 0.05 0.05 0.05 0.05 0.06
0.00 0.00 0.00 0.00 0.00 0.01 0.01 0.01 0.01 0.00 0.01 0.00 0.00 0.01 0.01 0.01 0.00 0.01 0.01 0.01 0.01 0.01 0.02 0.06 0.09 0.05 0.03 0.02 0.02 0.01 0.02 0.02 0.03 0.04 0.04 0.03 0.04 0.05 0.04 0.03 0.03 0.03 0.04 0.05 0.06 0.05 0.05 0.07 0.09
0.01 0.01 0.01 0.00 0.01 0.01 0.02 0.01 0.01 0.01 0.03 0.03 0.03 0.02 0.02 0.01 0.01 0.01 0.01 0.01 0.00 0.01 0.02 0.05 0.11 0.07 0.02 0.02 0.01 0.02 0.02 0.02 0.03 0.03 0.04 0.04 0.04 0.05 0.05 0.06 0.05 0.05 0.05 0.04 0.05 0.05 0.05 0.06 0.05
0.00 0.01 0.01 0.01 0.01 0.01 0.02 0.02 0.02 0.02 0.02 0.02 0.03 0.03 0.03 0.02 0.01 0.01 0.01 0.01 0.01 0.01 0.01 0.02 0.03 0.03 0.03 0.03 0.02 0.01 0.02 0.01 0.01 0.01 0.02 0.03 0.03 0.05 0.07 0.10 0.09 0.07 0.06 0.05 0.05 0.04 0.04 0.05 0.05
0.00 0.00 0.00 0.01 0.01 0.01 0.01 0.01 0.02 0.03 0.02 0.02 0.02 0.02 0.01 0.01 0.01 0.01 0.01 0.01 0.00 0.01 0.01 0.01 0.01 0.02 0.03 0.04 0.03 0.02 0.02 0.01 0.01 0.01 0.02 0.02 0.03 0.03 0.05 0.07 0.09 0.07 0.07 0.07 0.06 0.04 0.04 0.05 0.05
0.00 0.00 0.00 0.00 0.00 0.01 0.01 0.00 0.01 0.01 0.01 0.01 0.01 0.01 0.01 0.01 0.01 0.01 0.01 0.00 0.00 0.01 0.02 0.02 0.02 0.03 0.03 0.03 0.02 0.01 0.01 0.01 0.01 0.02 0.02 0.02 0.02 0.03 0.04 0.03 0.04 0.05 0.06 0.06 0.07 0.06 0.04 0.04 0.07
0.00 0.00 0.00 0.00 0.01 0.00 0.00 0.00 0.00 0.00 0.00 0.00 0.00 0.00 0.00 0.01 0.01 0.01 0.01 0.00 0.01 0.01 0.02 0.03 0.03 0.05 0.03 0.01 0.01 0.01 0.01 0.01 0.01 0.02 0.01 0.01 0.01 0.01 0.01 0.01 0.01 0.02 0.03 0.04 0.06 0.07 0.07 0.06 0.06
0.01 0.00 0.00 0.01 0.01 0.00 0.00 0.00 0.00 0.00 0.00 0.01 0.01 0.00 0.00 0.00 0.01 0.01 0.01 0.01 0.00 0.01 0.01 0.01 0.03 0.04 0.03 0.02 0.01 0.01 0.00 0.01 0.01 0.01 0.01 0.00 0.00 0.00 0.01 0.01 0.01 0.02 0.02 0.02 0.04 0.06 0.07 0.05 0.04
0.00 0.00 0.00 0.01 0.01 0.00 0.00 0.00 0.00 0.00 0.00 0.00 0.00 0.00 0.00 0.00 0.00 0.01 0.01 0.01 0.01 0.02 0.02 0.04 0.05 0.05 0.02 0.01 0.01 0.01 0.01 0.02 0.02 0.01 0.01 0.00 0.00 0.01 0.02 0.02 0.02 0.01 0.01 0.01 0.03 0.04 0.05 0.03 0.04
0.00 0.00 0.00 0.01 0.00 0.00 0.00 0.00 0.00 0.00 0.00 0.00 0.00 0.00 0.00 0.00 0.00 0.00 0.00 0.01 0.01 0.01 0.01 0.02 0.02 0.02 0.01 0.01 0.01 0.01 0.01 0.02 0.01 0.02 0.02 0.01 0.00 0.01 0.01 0.02 0.02 0.01 0.01 0.01 0.01 0.02 0.02 0.03 0.03
0.00 0.00 0.00 0.00 0.00 0.00 0.00 0.00 0.00 0.00 0.00 0.00 0.00 0.00 0.00 0.00 0.00 0.00 0.00 0.01 0.01 0.01 0.01 0.01 0.01 0.01 0.01 0.01 0.02 0.02 0.02 0.02 0.02 0.02 0.02 0.01 0.01 0.01 0.01 0.02 0.02 0.01 0.01 0.01 0.01 0.01 0.01 0.03 0.03
0.00 0.00 0.00 0.00 0.00 0.00 0.00 0.00 0.00 0.00 0.00 0.00 0.00 0.00 0.00 0.00 0.00 0.00 0.00 0.01 0.01 0.02 0.02 0.02 0.02 0.01 0.01 0.02 0.03 0.04 0.04 0.04 0.04 0.03 0.02 0.02 0.02 0.01 0.01 0.01 0.02 0.01 0.01 0.01 0.02 0.01 0.01 0.01 0.01
0.00 0.00 0.00 0.00 0.00 0.00 0.00 0.00 0.00 0.00 0.00 0.00 0.00 0.00 0.00 0.00 0.00 0.00 0.01 0.01 0.02 0.02 0.02 0.02 0.03 0.04 0.02 0.02 0.03 0.04 0.04 0.04 0.04 0.03 0.02 0.02 0.02 0.01 0.02 0.03 0.02 0.01 0.01 0.01 0.02 0.02 0.02 0.03 0.02
0.00 0.00 0.00 0.00 0.00 0.00 0.00 0.00 0.00 0.00 0.00 0.00 0.00 0.00 0.00 0.00 0.00 0.01 0.01 0.01 0.01 0.01 0.01 0.01 0.03 0.05 0.02 0.02 0.02 0.02 0.03 0.03 0.03 0.04 0.03 0.03 0.02 0.02 0.03 0.03 0.01 0.01 0.01 0.02 0.03 0.03 0.05 0.04 0.03
MSLP
1005.70 1006.96 1008.47 1010.06 1011.56 1012.81 1013.74 1014.30 1014.55 1014.58 1014.52 1014.48 1014.52 1014.66 1014.87 1015.06 1015.16 1015.10 1014.86 1014.47 1013.99 1013.51 1013.10 1012.85 1012.76 1012.81 1012.95 1013.10 1013.22 1013.26 1013.20 1013.08 1012.93 1012.81 1012.75 1012.76 1012.85 1012.98 1013.11 1013.20 1013.23 1013.19 1013.09 1012.96 1012.83 1012.73 1012.69 1012.72 1012.79
1006.27 1007.80 1009.51 1011.22 1012.74 1013.91 1014.67 1015.00 1014.99 1014.76 1014.48 1014.27 1014.21 1014.31 1014.53 1014.79 1014.97 1015.00 1014.86 1014.55 1014.14 1013.71 1013.34 1013.11 1013.04 1013.09 1013.23 1013.39 1013.50 1013.53 1013.48 1013.37 1013.24 1013.14 1013.11 1013.16 1013.29 1013.44 1013.60 1013.70 1013.73 1013.68 1013.57 1013.43 1013.29 1013.20 1013.16 1013.19 1013.28
1007.00 1008.73 1010.59 1012.35 1013.83 1014.88 1015.45 1015.56 1015.33 1014.90 1014.45 1014.12 1014.00 1014.09 1014.33 1014.63 1014.87 1014.97 1014.89 1014.64 1014.27 1013.88 1013.54 1013.32 1013.26 1013.32 1013.46 1013.62 1013.74 1013.79 1013.76 1013.67 1013.57 1013.51 1013.51 1013.58 1013.71 1013.86 1014.00 1014.08 1014.09 1014.03 1013.91 1013.76 1013.64 1013.56 1013.55 1013.60 1013.71
1007.83 1009.71 1011.62 1013.36 1014.75 1015.66 1016.06 1015.99 1015.58 1015.02 1014.47 1014.08 1013.93 1014.02 1014.28 1014.60 1014.88 1015.01 1014.96 1014.74 1014.40 1014.03 1013.71 1013.50 1013.45 1013.52 1013.66 1013.84 1013.97 1014.04 1014.04 1014.00 1013.93 1013.90 1013.91 1013.99 1014.10 1014.23 1014.33 1014.38 1014.35 1014.26 1014.14 1014.01 1013.91 1013.86 1013.88 1013.97 1014.10
1008.71 1010.64 1012.54 1014.20 1015.46 1016.21 1016.46 1016.26 1015.76 1015.13 1014.56 1014.18 1014.04 1014.13 1014.40 1014.73 1015.00 1015.13 1015.08 1014.86 1014.54 1014.18 1013.88 1013.70 1013.65 1013.73 1013.89 1014.07 1014.22 1014.32 1014.35 1014.33 1014.30 1014.29 1014.31 1014.38 1014.47 1014.55 1014.61 1014.60 1014.54 1014.44 1014.31 1014.20 1014.13 1014.12 1014.17 1014.28 1014.43
1009.56 1011.48 1013.28 1014.80 1015.91 1016.52 1016.64 1016.38 1015.86 1015.26 1014.74 1014.40 1014.31 1014.43 1014.69 1015.00 1015.24 1015.34 1015.26 1015.04 1014.72 1014.39 1014.12 1013.95 1013.93 1014.01 1014.17 1014.35 1014.51 1014.61 1014.66 1014.67 1014.66 1014.66 1014.69 1014.74 1014.80 1014.84 1014.85 1014.80 1014.71 1014.59 1014.46 1014.37 1014.33 1014.35 1014.43 1014.56 1014.71
1010.34 1012.16 1013.81 1015.16 1016.09 1016.57 1016.63 1016.36 1015.90 1015.40 1014.99 1014.75 1014.73 1014.88 1015.13 1015.40 1015.58 1015.63 1015.52 1015.29 1014.98 1014.68 1014.44 1014.31 1014.30 1014.39 1014.54 1014.70 1014.84 1014.92 1014.97 1014.98 1014.97 1014.98 1015.01 1015.05 1015.08 1015.09 1015.06 1014.98 1014.87 1014.73 1014.61 1014.53 1014.51 1014.55 1014.64 1014.77 1014.92
1011.00 1012.68 1014.15 1015.30 1016.07 1016.44 1016.47 1016.25 1015.90 1015.54 1015.28 1015.17 1015.23 1015.41 1015.65 1015.87 1015.99 1015.98 1015.84 1015.60 1015.32 1015.05 1014.86 1014.76 1014.77 1014.85 1014.97 1015.09 1015.18 1015.23 1015.24 1015.23 1015.22 1015.23 1015.26 1015.29 1015.32 1015.31 1015.26 1015.16 1015.03 1014.89 1014.77 1014.69 1014.68 1014.72 1014.81 1014.93 1015.06
1011.57 1013.08 1014.35 1015.30 1015.91 1016.20 1016.23 1016.08 1015.87 1015.68 1015.58 1015.61 1015.75 1015.96 1016.18 1016.34 1016.40 1016.34 1016.17 1015.94 1015.69 1015.47 1015.33 1015.27 1015.28 1015.35 1015.42 1015.48 1015.50 1015.49 1015.45 1015.41 1015.39 1015.40 1015.44 1015.48 1015.50 1015.49 1015.43 1015.32 1015.18 1015.04 1014.91 1014.84 1014.82 1014.86 1014.94 1015.03 1015.13
1012.11 1013.44 1014.49 1015.26 1015.73 1015.95 1015.99 1015.93 1015.85 1015.82 1015.87 1016.01 1016.22 1016.44 1016.63 1016.74 1016.75 1016.65 1016.47 1016.25 1016.04 1015.88 1015.79 1015.76 1015.78 1015.82 1015.84 1015.82 1015.76 1015.68 1015.59 1015.51 1015.48 1015.49 1015.54 1015.59 1015.63 1015.63 1015.58 1015.47 1015.32 1015.17 1015.04 1014.96 1014.93 1014.95 1015.01 1015.08 1015.16
1012.68 1013.83 1014.70 1015.29 1015.63 1015.79 1015.84 1015.84 1015.88 1015.97 1016.13 1016.35 1016.59 1016.81 1016.96 1017.02 1016.98 1016.85 1016.68 1016.49 1016.33 1016.22 1016.17 1016.17 1016.19 1016.19 1016.16 1016.07 1015.94 1015.79 1015.65 1015.54 1015.50 1015.52 1015.58 1015.66 1015.73 1015.74 1015.70 1015.59 1015.44 1015.28 1015.14 1015.05 1015.01 1015.01 1015.06 1015.11 1015.16
1013.33 1014.33 1015.04 1015.48 1015.71 1015.81 1015.86 1015.90 1015.99 1016.15 1016.37 1016.62 1016.86 1017.04 1017.15 1017.16 1017.08 1016.94 1016.77 1016.62 1016.50 1016.44 1016.43 1016.45 1016.46 1016.44 1016.35 1016.21 1016.03 1015.83 1015.65 1015.53 1015.49 1015.52 1015.61 1015.72 1015.80 1015.83 1015.80 1015.69 1015.54 1015.37 1015.23 1015.12 1015.07 1015.07 1015.11 1015.16 1015.20
1014.08 1014.96 1015.54 1015.86 1016.01 1016.06 1016.08 1016.12 1016.23 1016.40 1016.61 1016.84 1017.03 1017.16 1017.21 1017.18 1017.07 1016.92 1016.76 1016.64 1016.56 1016.53 1016.55 1016.58 1016.58 1016.54 1016.43 1016.26 1016.05 1015.84 1015.65 1015.54 1015.51 1015.55 1015.66 1015.78 1015.88 1015.92 1015.89 1015.79 1015.64 1015.47 1015.31 1015.20 1015.16 1015.16 1015.20 1015.26 1015.30
1014.88 1015.66 1016.15 1016.40 1016.49 1016.50 1016.49 1016.52 1016.60 1016.73 1016.88 1017.04 1017.16 1017.22 1017.21 1017.13 1016.99 1016.84 1016.69 1016.58 1016.53 1016.52 1016.54 1016.57 1016.58 1016.53 1016.43 1016.26 1016.06 1015.86 1015.70 1015.60 1015.58 1015.64 1015.76 1015.88 1015.99 1016.03 1016.00 1015.90 1015.75 1015.58 1015.43 1015.33 1015.28 1015.30 1015.36 1015.44 1015.50
1015.60 1016.32 1016.76 1016.98 1017.06 1017.06 1017.04 1017.04 1017.07 1017.13 1017.20 1017.26 1017.29 1017.28 1017.20 1017.08 1016.93 1016.77 1016.63 1016.53 1016.47 1016.46 1016.48 1016.50 1016.51 1016.48 1016.39 1016.26 1016.10 1015.95 1015.82 1015.76 1015.76 1015.83 1015.93 1016.05 1016.13 1016.17 1016.13 1016.03 1015.89 1015.73 1015.59 1015.50 1015.48 1015.52 1015.61 1015.71 1015.80
1016.12 1016.81 1017.25 1017.49 1017.60 1017.64 1017.63 1017.61 1017.59 1017.57 1017.55 1017.52 1017.46 1017.37 1017.25 1017.10 1016.94 1016.78 1016.64 1016.53 1016.45 1016.42 1016.41 1016.42 1016.43 1016.42 1016.37 1016.30 1016.21 1016.12 1016.05 1016.02 1016.04 1016.09 1016.18 1016.26 1016.32 1016.34 1016.29 1016.20 1016.06 1015.92 1015.81 1015.74 1015.74 1015.80 1015.91 1016.04 1016.17
1016.32 1017.00 1017.48 1017.81 1018.01 1018.12 1018.16 1018.15 1018.10 1018.02 1017.91 1017.79 1017.65 1017.51 1017.36 1017.20 1017.04 1016.89 1016.74 1016.61 1016.51 1016.44 1016.39 1016.38 1016.38 1016.40 1016.41 1016.41 1016.40 1016.39 1016.37 1016.37 1016.39 1016.43 1016.47 1016.51 1016.53 1016.52 1016.47 1016.38 1016.27 1016.16 1016.07 1016.03 1016.05 1016.12 1016.25 1016.40 1016.55
1016.16 1016.86 1017.43 1017.87 1018.21 1018.44 1018.57 1018.59 1018.53 1018.40 1018.23 1018.04 1017.84 1017.67 1017.51 1017.36 1017.22 1017.08 1016.93 1016.79 1016.64 1016.52 1016.43 1016.39 1016.39 1016.42 1016.49 1016.56 1016.64 1016.70 1016.74 1016.77 1016.78 1016.78 1016.77 1016.76 1016.74 1016.70 1016.64 1016.57 1016.49 1016.42 1016.36 1016.34 1016.37 1016.45 1016.58 1016.73 1016.89
1015.67 1016.42 1017.10 1017.71 1018.22 1018.60 1018.83 1018.91 1018.86 1018.69 1018.46 1018.21 1017.97 1017.78 1017.63 1017.51 1017.41 1017.30 1017.17 1017.00 1016.83 1016.66 1016.52 1016.44 1016.42 1016.48 1016.59 1016.74 1016.88 1017.01 1017.10 1017.15 1017.14 1017.10 1017.05 1016.98 1016.92 1016.86 1016.80 1016.76 1016.72 1016.68 1016.66 1016.65 1016.68 1016.75 1016.85 1016.98 1017.13
1014.98 1015.80 1016.63 1017.42 1018.11 1018.64 1018.98 1019.12 1019.06 1018.85 1018.56 1018.25 1017.98 1017.78 1017.65 1017.58 1017.53 1017.47 1017.36 1017.21 1017.01 1016.80 1016.62 1016.50 1016.47 1016.53 1016.68 1016.88 1017.08 1017.27 1017.40 1017.45 1017.43 1017.36 1017.25 1017.14 1017.04 1016.97 1016.93 1016.92 1016.92 1016.92 1016.93 1016.93 1016.95 1016.98 1017.04 1017.13 1017.25
1014.27 1015.19 1016.18 1017.14 1018.00 1018.67 1019.09 1019.24 1019.15 1018.87 1018.50 1018.12 1017.81 1017.60 1017.50 1017.48 1017.51 1017.51 1017.46 1017.33 1017.13 1016.90 1016.68 1016.53 1016.48 1016.54 1016.71 1016.94 1017.20 1017.42 1017.57 1017.64 1017.61 1017.51 1017.37 1017.22 1017.11 1017.04 1017.02 1017.04 1017.08 1017.13 1017.16 1017.16 1017.15 1017.14 1017.13 1017.16 1017.24
1013.73 1014.77 1015.91 1017.03 1018.02 1018.77 1019.22 1019.34 1019.17 1018.78 1018.29 1017.82 1017.44 1017.21 1017.14 1017.19 1017.29 1017.38 1017.40 1017.32 1017.15 1016.92 1016.68 1016.51 1016.44 1016.49 1016.66 1016.91 1017.19 1017.44 1017.62 1017.70 1017.66 1017.55 1017.40 1017.24 1017.12 1017.06 1017.06 1017.12 1017.21 1017.28 1017.33 1017.34 1017.30 1017.23 1017.16 1017.12 1017.13
1013.48 1014.64 1015.92 1017.16 1018.23 1019.01 1019.42 1019.45 1019.14 1018.60 1017.97 1017.37 1016.91 1016.65 1016.60 1016.70 1016.88 1017.07 1017.18 1017.17 1017.05 1016.85 1016.62 1016.43 1016.34 1016.38 1016.54 1016.79 1017.08 1017.35 1017.54 1017.63 1017.61 1017.50 1017.35 1017.20 1017.09 1017.04 1017.08 1017.17 1017.29 1017.39 1017.46 1017.45 1017.39 1017.28 1017.14 1017.03 1016.98
1013.53 1014.82 1016.20 1017.52 1018.62 1019.36 1019.68 1019.57 1019.09 1018.37 1017.57 1016.83 1016.28 1015.97 1015.92 1016.07 1016.34 1016.62 1016.83 1016.92 1016.86 1016.70 1016.49 1016.30 1016.19 1016.21 1016.35 1016.59 1016.88 1017.16 1017.36 1017.47 1017.47 1017.39 1017.25 1017.12 1017.03 1017.00 1017.06 1017.18 1017.32 1017.45 1017.53 1017.53 1017.45 1017.30 1017.12 1016.96 1016.84
1013.82 1015.21 1016.67 1018.01 1019.08 1019.75 1019.94 1019.66 1019.00 1018.09 1017.12 1016.25 1015.60 1015.25 1015.20 1015.39 1015.74 1016.11 1016.42 1016.60 1016.62 1016.51 1016.32 1016.13 1016.02 1016.01 1016.12 1016.34 1016.61 1016.89 1017.11 1017.24 1017.27 1017.22 1017.12 1017.01 1016.95 1016.95 1017.02 1017.16 1017.32 1017.47 1017.56 1017.57 1017.49 1017.34 1017.14 1016.93 1016.77
1014.17 1015.65 1017.14 1018.47 1019.48 1020.03 1020.08 1019.64 1018.82 1017.76 1016.65 1015.68 1014.96 1014.58 1014.53 1014.76 1015.16 1015.61 1016.00 1016.25 1016.34 1016.28 1016.13 1015.95 1015.82 1015.78 1015.86 1016.05 1016.30 1016.57 1016.80 1016.96 1017.03 1017.01 1016.95 1016.89 1016.85 1016.87 1016.96 1017.11 1017.28 1017.44 1017.55 1017.58 1017.52 1017.39 1017.19 1016.98 1016.79
1014.44 1015.95 1017.44 1018.72 1019.63 1020.08 1020.00 1019.44 1018.51 1017.36 1016.18 1015.16 1014.41 1014.02 1013.98 1014.23 1014.67 1015.16 1015.60 1015.91 1016.05 1016.03 1015.90 1015.73 1015.59 1015.53 1015.57 1015.73 1015.95 1016.21 1016.45 1016.63 1016.73 1016.77 1016.76 1016.73 1016.73 1016.77 1016.87 1017.02 1017.20 1017.37 1017.50 1017.57 1017.55 1017.45 1017.29 1017.09 1016.90
1014.48 1015.98 1017.41 1018.60 1019.42 1019.76 1019.60 1018.99 1018.02 1016.86 1015.70 1014.70 1013.98 1013.61 1013.59 1013.85 1014.29 1014.80 1015.25 1015.58 1015.74 1015.75 1015.63 1015.46 1015.31 1015.23 1015.24 1015.36 1015.56 1015.80 1016.04 1016.25 1016.39 1016.47 1016.51 1016.53 1016.56 1016.63 1016.74 1016.90 1017.08 1017.26 1017.42 1017.52 1017.55 1017.51 1017.40 1017.25 1017.08
1014.23 1015.66 1016.99 1018.07 1018.78 1019.04 1018.85 1018.24 1017.33 1016.26 1015.20 1014.30 1013.66 1013.34 1013.34 1013.60 1014.02 1014.49 1014.92 1015.23 1015.39 1015.39 1015.28 1015.12 1014.96 1014.87 1014.86 1014.95 1015.13 1015.35 1015.59 1015.81 1015.99 1016.12 1016.21 1016.28 1016.35 1016.44 1016.57 1016.73 1016.92 1017.11 1017.29 1017.43 1017.52 1017.54 1017.50 1017.41 1017.28
1013.75 1015.04 1016.22 1017.16 1017.76 1017.96 1017.77 1017.23 1016.45 1015.54 1014.65 1013.91 1013.40 1013.16 1013.18 1013.42 1013.79 1014.20 1014.57 1014.83 1014.95 1014.94 1014.84 1014.68 1014.54 1014.44 1014.43 1014.51 1014.66 1014.87 1015.11 1015.34 1015.55 1015.72 1015.85 1015.97 1016.08 1016.21 1016.35 1016.53 1016.72 1016.92 1017.12 1017.29 1017.42 1017.51 1017.54 1017.51 1017.44
Thickness
5818 5814 5809 5796 5772 5747 5739 5748 5757 5756 5756 5763 5765 5760 5751 5744 5739 5735 5754 5762 5763 5763 5763 5764 5765 5766 5767 5767 5767 5767 5768 5767 5767 5766 5766 5767 5766 5766 5766 5767 5767 5766 5765 5764 5763 5762 5761 5759 5758
5820 5815 5804 5786 5754 5730 5736 5752 5754 5758 5763 5768 5767 5762 5753 5749 5754 5754 5757 5762 5763 5763 5763 5763 5764 5765 5765 5765 5765 5766 5767 5766 5766 5765 5765 5765 5765 5765 5765 5765 5765 5765 5764 5763 5761 5760 5759 5757 5756
5822 5817 5794 5772 5750 5736 5742 5755 5758 5765 5772 5770 5764 5763 5756 5751 5756 5758 5761 5764 5763 5763 5762 5762 5763 5763 5763 5763 5764 5764 5765 5765 5764 5764 5764 5764 5764 5764 5764 5763 5763 5763 5762 5761 5760 5759 5757 5756 5755
5821 5806 5789 5765 5751 5757 5759 5762 5767 5765 5769 5771 5765 5756 5759 5764 5763 5763 5765 5764 5762 5762 5762 5762 5762 5762 5762 5762 5762 5763 5763 5763 5762 5762 5762 5762 5763 5762 5762 5763 5762 5762 5761 5760 5759 5757 5756 5755 5754
5819 5796 5771 5754 5757 5766 5771 5772 5772 5765 5764 5765 5763 5752 5753 5763 5768 5766 5764 5763 5761 5761 5761 5761 5761 5761 5761 5760 5760 5761 5761 5761 5761 5761 5761 5761 5761 5761 5761 5762 5762 5761 5760 5759 5757 5756 5755 5754 5753
5805 5788 5757 5747 5758 5768 5773 5776 5772 5765 5764 5765 5762 5753 5752 5763 5765 5764 5764 5762 5761 5760 5760 5760 5760 5760 5759 5759 5759 5759 5759 5760 5760 5759 5759 5760 5759 5760 5760 5760 5760 5760 5759 5757 5756 5755 5754 5753 5753
5799 5778 5761 5759 5759 5764 5773 5779 5771 5766 5763 5765 5766 5752 5753 5760 5764 5764 5763 5761 5760 5760 5759 5759 5759 5759 5758 5758 5758 5758 5759 5759 5758 5758 5758 5758 5758 5758 5759 5759 5759 5759 5757 5755 5754 5754 5753 5752 5752
5810 5784 5768 5764 5762 5765 5779 5780 5778 5773 5769 5777 5773 5755 5751 5761 5765 5763 5761 5759 5759 5759 5758 5758 5758 5757 5757 5757 5757 5757 5757 5758 5757 5757 5757 5756 5756 5757 5757 5757 5757 5757 5756 5754 5754 5753 5752 5751 5750
5816 5779 5764 5769 5769 5773 5783 5779 5781 5785 5778 5777 5776 5770 5769 5769 5766 5760 5757 5756 5756 5757 5757 5757 5757 5757 5757 5757 5757 5757 5757 5757 5756 5756 5756 5755 5755 5755 5756 5756 5756 5756 5755 5754 5753 5752 5751 5750 5749
5806 5775 5780 5792 5791 5787 5787 5783 5781 5777 5771 5769 5769 5771 5773 5769 5763 5758 5755 5754 5754 5755 5757 5758 5757 5757 5757 5757 5756 5756 5756 5756 5756 5755 5755 5754 5754 5754 5755 5755 5755 5755 5754 5753 5752 5751 5750 5749 5748
5808 5792 5799 5803 5804 5799 5790 5786 5788 5775 5765 5769 5768 5768 5769 5766 5762 5759 5758 5757 5757 5757 5758 5758 5758 5758 5757 5757 5756 5756 5756 5755 5755 5754 5754 5754 5754 5753 5753 5753 5753 5753 5753 5752 5751 5750 5749 5748 5747
5809 5808 5810 5807 5808 5801 5792 5789 5784 5780 5778 5784 5781 5777 5771 5766 5763 5761 5760 5759 5760 5759 5759 5760 5759 5758 5758 5757 5757 5756 5756 5755 5755 5754 5753 5753 5753 5752 5752 5752 5752 5752 5751 5750 5749 5748 5748 5747 5747
5811 5808 5812 5811 5808 5802 5796 5789 5785 5783 5788 5788 5783 5777 5772 5768 5766 5766 5765 5763 5762 5760 5761 5761 5761 5760 5759 5758 5758 5757 5756 5756 5755 5754 5754 5753 5752 5752 5752 5751 5751 5751 5750 5749 5749 5747 5747 5746 5746
5813 5811 5807 5806 5804 5802 5792 5788 5786 5783 5789 5785 5780 5775 5774 5772 5770 5767 5765 5764 5763 5763 5763 5763 5762 5761 5760 5759 5758 5758 5757 5757 5756 5755 5754 5754 5753 5753 5752 5751 5751 5750 5750 5749 5748 5747 5746 5745 5744
5818 5804 5800 5801 5801 5799 5793 5779 5783 5789 5789 5782 5779 5777 5775 5774 5773 5770 5770 5768 5768 5767 5766 5765 5765 5763 5762 5761 5760 5759 5758 5757 5757 5756 5756 5755 5755 5754 5753 5752 5751 5750 5750 5749 5748 5746 5745 5744 5744
5807 5790 5779 5794 5799 5798 5787 5767 5784 5792 5787 5779 5779 5778 5775 5774 5775 5775 5774 5772 5772 5770 5769 5768 5768 5765 5763 5762 5761 5760 5759 5758 5757 5757 5756 5756 5755 5755 5754 5752 5751 5751 5750 5749 5747 5746 5744 5743 5742
5784 5773 5774 5786 5798 5796 5785 5774 5786 5792 5787 5779 5779 5778 5776 5775 5775 5777 5778 5776 5774 5773 5771 5769 5768 5766 5765 5763 5762 5761 5760 5759 5758 5758 5757 5757 5756 5755 5754 5753 5752 5751 5750 5749 5748 5745 5743 5741 5740
5774 5774 5776 5778 5793 5792 5782 5779 5787 5791 5788 5782 5780 5779 5777 5776 5778 5780 5780 5779 5777 5775 5773 5771 5769 5767 5766 5764 5762 5761 5760 5760 5759 5758 5757 5757 5757 5756 5754 5753 5752 5751 5749 5748 5747 5745 5743 5741 5739
5793 5783 5778 5785 5799 5790 5782 5780 5785 5789 5787 5783 5780 5779 5778 5779 5783 5783 5782 5780 5778 5775 5773 5771 5769 5767 5765 5763 5760 5758 5758 5759 5759 5759 5758 5758 5757 5756 5755 5753 5752 5751 5749 5748 5746 5744 5741 5739 5738
5794 5784 5781 5789 5799 5791 5781 5781 5788 5790 5790 5789 5786 5783 5781 5780 5781 5781 5781 5780 5778 5775 5773 5771 5770 5768 5767 5765 5763 5761 5760 5759 5759 5759 5758 5758 5757 5756 5755 5753 5752 5750 5749 5747 5746 5744 5740 5738 5738
5790 5785 5785 5784 5790 5789 5782 5775 5782 5790 5794 5793 5792 5789 5787 5785 5782 5782 5781 5780 5779 5776 5775 5774 5772 5770 5769 5767 5765 5763 5760 5759 5758 5757 5757 5757 5757 5756 5755 5754 5752 5751 5749 5747 5746 5744 5741 5737 5736
5784 5799 5797 5789 5774 5763 5773 5751 5775 5784 5786 5790 5792 5791 5790 5791 5788 5786 5784 5782 5781 5780 5779 5776 5774 5772 5770 5768 5766 5762 5758 5756 5756 5756 5757 5757 5756 5756 5755 5754 5753 5751 5749 5747 5746 5744 5742 5739 5735
5795 5803 5796 5786 5770 5760 5764 5753 5766 5782 5780 5789 5796 5798 5797 5796 5794 5791 5789 5787 5785 5783 5781 5778 5775 5772 5771 5769 5767 5764 5761 5759 5758 5757 5756 5756 5756 5755 5755 5754 5752 5750 5749 5747 5745 5743 5742 5739 5736
5803 5791 5780 5768 5758 5744 5758 5752 5760 5775 5788 5798 5803 5804 5803 5802 5800 5797 5794 5791 5787 5785 5782 5779 5774 5772 5772 5770 5768 5765 5762 5760 5757 5756 5755 5754 5754 5754 5754 5753 5751 5750 5748 5746 5744 5742 5740 5738 5736
5794 5768 5744 5740 5730 5736 5759 5756 5766 5798 5807 5810 5811 5810 5809 5807 5802 5798 5794 5791 5788 5785 5783 5780 5776 5773 5773 5771 5769 5767 5764 5762 5759 5757 5755 5754 5752 5752 5752 5751 5750 5748 5747 5745 5743 5741 5738 5736 5734
5783 5773 5744 5731 5728 5738 5754 5754 5783 5812 5817 5819 5818 5816 5813 5809 5806 5802 5799 5795 5791 5788 5785 5781 5777 5774 5774 5772 5769 5768 5765 5762 5760 5758 5756 5754 5753 5752 5751 5750 5749 5747 5746 5744 5742 5739 5737 5735 5733
5777 5770 5772 5747 5741 5738 5746 5764 5791 5813 5815 5816 5816 5815 5812 5811 5809 5806 5802 5798 5795 5791 5787 5784 5780 5777 5774 5772 5770 5767 5765 5763 5761 5759 5757 5755 5753 5752 5751 5749 5747 5745 5744 5742 5740 5737 5735 5733 5731
5790 5775 5756 5743 5728 5730 5748 5760 5774 5799 5806 5811 5811 5813 5814 5813 5811 5808 5805 5801 5798 5795 5790 5786 5782 5779 5776 5773 5771 5768 5765 5763 5761 5759 5756 5754 5753 5751 5749 5747 5745 5743 5741 5739 5737 5735 5733 5731 5728
5774 5768 5756 5744 5745 5732 5733 5757 5801 5805 5811 5812 5814 5817 5817 5815 5813 5810 5807 5804 5800 5796 5792 5787 5783 5780 5776 5773 5771 5768 5765 5763 5760 5758 5756 5754 5752 5749 5747 5745 5742 5740 5739 5737 5735 5733 5731 5728 5726
5787 5774 5762 5751 5742 5739 5740 5762 5816 5815 5817 5817 5817 5819 5819 5817 5815 5812 5808 5804 5800 5796 5793 5788 5784 5781 5778 5774 5771 5768 5765 5762 5759 5757 5755 5753 5750 5747 5745 5742 5740 5738 5736 5734 5732 5730 5728 5726 5723